[Iaude] MPEC B04: 2024 AQ4 [a=2.80,e=0.65,i=7.6,H=25.7]
    mpec at marsden.cfa.harvard.edu 
    mpec at marsden.cfa.harvard.edu
       
    Tue Jan 16 08:33:44 EST 2024
    
    
  
M.P.E.C. 2024-B04                              Issued 2024 January 16, 13:31 UT
     The Minor Planet Electronic Circulars contain information on unusual
         minor planets, routine data on comets and natural satellites,
         and occasional editorial announcements.  They are published
    on behalf of Division F of the International Astronomical Union by the
          Minor Planet Center, Smithsonian Astrophysical Observatory,
                          Cambridge, MA 02138, U.S.A.
			  
             Prepared using the Tamkin Foundation Computer Network
                              MPC at CFA.HARVARD.EDU
            URL https://www.minorplanetcenter.net/    ISSN 1523-6714
                                    2024 AQ4                                    
Observations:
     K24A04Q 1C2024 01 14.29141 07 45 52.63 -03 02 02.5                VEB004G96
     K24A04Q 1C2024 01 14.29729 07 46 36.41 -02 55 21.6                VEB004G96
     K24A04Q 1C2024 01 14.30312 07 47 19.72 -02 48 46.4          15.8 GVEB004G96
     K24A04Q 1C2024 01 14.30901 07 48 03.38 -02 42 06.3                VEB004G96
     K24A04Q* C2024 01 15.44550709 43 07.308+13 30 12.20         16.45oVEB004T05
     K24A04Q  C2024 01 15.45948609 44 04.126+13 37 56.89         16.91oVEB004T05
     K24A04Q  C2024 01 15.46311009 44 18.653+13 39 54.86         17.79oVEB004T05
     K24A04Q  C2024 01 15.46718209 44 35.158+13 42 09.79         17.27oVEB004T05
     K24A04Q KC2024 01 16.10699010 22 14.92 +18 07 20.6          17.2 GVEB004L01
     K24A04Q KC2024 01 16.10812410 22 18.05 +18 07 42.3          17.1 GVEB004L01
     K24A04Q KC2024 01 16.10925710 22 21.18 +18 08 04.0          17.3 GVEB004L01
     K24A04Q KC2024 01 16.11039110 22 24.29 +18 08 25.8          17.2 GVEB004L01
     K24A04Q KC2024 01 16.11152510 22 27.43 +18 08 47.6          17.1 GVEB004L01
     K24A04Q  C2024 01 16.14650510 24 46.77 +18 30 36.3                WEB004X09
     K24A04Q  C2024 01 16.14933610 24 54.51 +18 31 31.4                WEB004X09
     K24A04Q  C2024 01 16.15146910 25 00.33 +18 32 13.1                WEB004X09
     K24A04Q KB2024 01 16.17789010 25 58.984+18 39 59.90               ZEB004Y05
     K24A04Q KB2024 01 16.17966910 26 03.591+18 40 32.56         19.4 VZEB004Y05
     K24A04Q KB2024 01 16.18143110 26 08.095+18 41 05.47         19.9 VZEB004Y05
     K24A04Q 1C2024 01 16.21268 10 27 02.96 +18 38 41.0          19.4 VXEB004033
     K24A04Q 1C2024 01 16.21291 10 27 03.57 +18 38 45.0          19.4 VXEB004033
     K24A04Q 1C2024 01 16.21314 10 27 04.17 +18 38 49.2          19.6 VXEB004033
     K24A04Q 1C2024 01 16.21346 10 27 05.00 +18 38 54.5          19.6 VXEB004033
     K24A04Q  C2024 01 16.35797 10 33 58.43 +19 22 17.6          18.0 VtEB004V27
     K24A04Q  C2024 01 16.37239 10 34 34.64 +19 25 23.1          17.2  rEB004718
     K24A04Q  C2024 01 16.37350 10 34 34.91 +19 26 28.5          17.2 VtEB004V27
     K24A04Q  C2024 01 16.37391 10 34 38.20 +19 25 47.9          17.7  rEB004718
     K24A04Q  C2024 01 16.37492 10 34 40.60 +19 26 03.9          17.3  rEB004718
     K24A04Q  C2024 01 16.37592 10 34 42.95 +19 26 19.4          17.7  rEB004718
     K24A04Q  C2024 01 16.37712 10 34 43.33 +19 27 26.4          19.0 VtEB004V27
     K24A04Q  C2024 01 16.38759 10 35 07.41 +19 30 13.0          17.7 VtEB004V27
     K24A04Q 1C2024 01 16.42433210 36 33.844+19 40 12.14         18.44GVEB004703
     K24A04Q 1C2024 01 16.42643410 36 38.563+19 40 44.54         17.88GVEB004703
     K24A04Q 1C2024 01 16.42852010 36 43.240+19 41 16.04         17.54GVEB004703
     K24A04Q 1C2024 01 16.43059610 36 47.891+19 41 47.80         17.69GVEB004703
Observer details:
033 Karl Schwarzschild Observatory, Tautenburg.  Observers S. Melnikov, C.
    Hogner, F. Ludwig, M. Hartmann, B. Stecklum.  Measurer B. Stecklum.
    1.34-m f/3 Schmidt + CCD.
703 Catalina Sky Survey.  Observers T. Beuden, D. Rankin.  Measurers T.
    Beuden, V. F. Carvajal, D. Fay, J. B. Fazekas, D. C. Fuls, A. R. Gibbs, A.
    D. Grauer, H. Groeller, J. K. Hogan, R. A. Kowalski, S. M. Larson, G. J.
    Leonard, D. Rankin, R. L. Seaman, F. C. Shelly, K. W. Wierzchos.  0.68-m
    Schmidt + 10K CCD.
718 Tooele.  Observer P. Wiggins.  0.35-m f/5.5 Schmidt-Cassegrain + CCD.
G96 Mt. Lemmon Survey.  Observer H. Groeller.  Measurers B. Gray, D. Rankin,
    F. C. Shelly.  1.5-m reflector + 10K CCD.
L01 Visnjan Observatory, Tican.  Observer K. Korlevic.  1.0-m f/2.9 reflector
    + CCD.
T05 ATLAS-HKO, Haleakala.  Observers L. Denneau, R. Siverd, J. Tonry, H.
    Weiland.  Measurers L. Denneau, N. Erasmus, A. Fitzsimmons, A. Lawrence,
    J. Robinson, R. Siverd, J. Tonry, H. Weiland.  0.5-m Reflector + CCD.
V27 North Mesa Observatory, Los Alamos.  Observer B. K. Kendrick.  0.25-m f/6
    reflector + CCD.
X09 Deep Random Survey, Rio Hurtado.  Observers A. Schnabel, D. Ruhela.
    Measurer S. Deen.  0.43-m reflector + CMOS.
Y05 SONEAR Wykrota-CEAMIG, Serra da Piedade.  Observer C. Jacques.  0.45-m
    f/2.9 reflector + CMO.
Orbital elements:
2024 AQ4                                                 Earth MOID = 0.0073 AU
Epoch 2023 Sept. 13.0 TT = JDT 2460200.5                Veres                   
M 336.24924              (2000.0)            P               Q                  
n   0.21090252     Peri.  344.62326     -0.16648499     -0.97879040             
a   2.7952128      Node   114.83875     +0.91798698     -0.19805379             
e   0.6494121      Incl.    7.55926     +0.35997590     +0.05238375             
P   4.67           H   25.77          G   0.15           U   7                  
Residuals in seconds of arc
240114 G96  0.6+  0.0     240116 L01  0.3-  0.1+    240116 718  0.0   0.4+
240114 G96  0.3+  0.8+    240116 X09  0.3+  0.9-    240116 V27  1.6+  0.1-
240114 G96  0.2-  0.3-    240116 X09  0.1-  0.6-    240116 718  0.1-  0.7+
240114 G96  0.9-  0.2-    240116 X09  0.3-  0.1-    240116 718  0.3+  0.5+
240115 T05  0.2+  0.1+    240116 Y05  0.1-  0.2-    240116 718  0.4+  0.1-
240115 T05  0.0   0.1+    240116 Y05  0.0   0.5-    240116 V27  1.5+  0.1-
240115 T05  1.5-  1.4-    240116 Y05  0.7-  0.1-    240116 V27  0.9-  0.5+
240115 T05  0.1+  0.2-    240116 033  0.1+  0.0     240116 703  0.0   0.5-
240116 L01  0.6-  0.0     240116 033  0.1+  0.0     240116 703  0.1-  0.0
240116 L01  0.5-  0.0     240116 033  0.1-  0.2+    240116 703  0.3-  0.2-
240116 L01  0.4-  0.1-    240116 033  0.3-  0.0     240116 703  0.3-  0.2+
240116 L01  0.6-  0.0     240116 V27  0.4+  0.3-
Ephemeris:
2024 AQ4                 a,e,i = 2.80, 0.65, 8                   q = 0.9800
Date    TT    R. A. (2000) Decl.     Delta      r    Elong.  Phase     V
2023 12 17    01 00 37.5 -29 08 09   0.1517  1.0103    95.6    75.8    24.3
...
2024 01 01    01 16 58.3 -29 37 27   0.07308 0.9807    85.8    89.9    23.2
...
2024 01 09    02 03 17.1 -30 12 42   0.02936 0.9829    88.2    90.1    21.3
...
2024 01 15    09 05 39.8 +08 37 50   0.01004 0.9928   156.5    23.3    16.9
2024 01 16    10 16 54.5 +17 35 56   0.01401 0.9952   144.7    34.8    17.9
2024 01 17    10 56 45.5 +21 40 53   0.01886 0.9976   137.1    42.1    18.8
...
2024 01 23    12 05 53.5 +27 00 00   0.05152 1.0164   127.5    50.2    21.2
...
2024 01 31    12 21 11.5 +28 05 07   0.09646 1.0507   130.8    45.2    22.5
...
2024 02 15    12 18 21.0 +28 30 29   0.1836  1.1386   142.4    31.9    23.7
M. P. C. Staff               (C) Copyright 2024 MPC           M.P.E.C. 2024-B04
    
    
More information about the Iaude
mailing list